Home > Time Zones > World Clock > Weather > China > Wuhan > Past weeks

Flag for China Weather past 2 weeks in Wuhan, Hubei, China

Now
93 °F

Sunny.


Feels Like: 117 °F
Forecast: 81 / 99 °F
Wind: 1 mph from North

Location: Wuhan Airport

Current Time: Jul 22, 2014 at 8:16:06 PM

Latest Report: Jul 22, 2014 at 7:00 PM


Visibility: 10 mi

Pressure: 29.56 "Hg

Humidity: 71%

Dew point: 82 °F

Location of WuhanLocation

Historic Weather in Wuhan — Graph

°F

Wuhan temperature yesterday

Maximum temperature yesterday: 97 °F (at 2:00 PM)
Minimum temperature yesterday: 79 °F (at 4:00 AM)
Average temperature yesterday: 88 °F

Past Weeks' High & Low Weather Summary

 TemperatureHumidityPressure
High99 °F (Jul 22, 2:00 PM)100% (Jul 9, 3:00 AM)29.83 "Hg (Jul 9, 3:00 AM)
Low72 °F (Jul 13, 2:00 AM)56% (Jul 8, 4:00 PM)29.47 "Hg (Jul 8, 5:00 PM)
Average82 °F84%29.68 "Hg
* Reported Jul 7 7:00 PM — Jul 22 7:00 PM, Wuhan, Weather by CustomWeather, © 2014

Note: Actual official high and low records may vary slightly from our data, if they occured in-between our weather recording intervals... More about our weather records

Advertising

Wuhan weather history for previous 24 hours

 ConditionsComfort  
Time TempWeatherWind HumidityBarometerVisibility
7:00 PM
Jul 22
93 °FSunny.1 mph71%29.56 "Hg10 mi
6:00 PM97 °FSunny.3 mph60%29.56 "Hg10 mi
5:00 PM99 °FSunny.3 mph57%29.56 "Hg10 mi
4:00 PM99 °FPassing clouds.3 mph60%29.56 "HgN/A
3:00 PM99 °FPassing clouds.3 mph60%29.59 "HgN/A
2:00 PM99 °FPassing clouds.3 mph57%29.62 "HgN/A
1:00 PM97 °FPassing clouds.6 mph63%29.62 "HgN/A
12:00 PM97 °FPassing clouds.6 mph63%29.65 "HgN/A
11:00 AM95 °FPassing clouds.3 mph67%29.65 "Hg4 mi
10:00 AM95 °FHaze.3 mph67%29.65 "Hg2 mi
9:00 AM91 °FFog.6 mph80%29.65 "Hg2 mi
8:00 AM90 °FFog.6 mph84%29.65 "Hg3 mi
7:00 AM86 °FFog.6 mph89%29.65 "Hg3 mi
6:00 AM84 °FFog.3 mph89%29.65 "Hg3 mi
5:00 AM82 °FClear.6 mph94%29.65 "Hg4 mi
4:00 AM82 °FFog.1 mph100%29.62 "Hg3 mi
3:00 AM86 °FClear.1 mph89%29.62 "Hg4 mi
2:00 AM86 °FClear.1 mph84%29.62 "Hg4 mi
1:00 AM84 °FClear.No wind94%29.65 "Hg4 mi
12:00 AM84 °FClear.No wind94%29.65 "Hg10 mi
11:00 PM
Jul 21
86 °FClear.1 mph89%29.65 "Hg10 mi
10:00 PM86 °FClear.1 mph84%29.65 "Hg10 mi
9:00 PM86 °FClear.1 mph89%29.65 "Hg10 mi
8:00 PM88 °FClear.1 mph79%29.62 "Hg10 mi
Weather by CustomWeather, © 2014

See weather overviewHow to use our weather pages